Dewpoint
74 74 72 72 72 71 72 71 70 70 71 69 67 71 70 73 73 74 74 75 74 74 74 75 76 77 76 77 79 77 77 77 75 75 76 75 74 73 71 72 72 71
75 74 74 72 72 73 73 72 72 71 71 72 70 70 72 73 72 73 73 74 74 73 74 74 75 76 77 76 77 76 77 76 76 73 75 76 75 74 72 73 73 75
74 74 73 72 70 72 69 71 72 71 70 70 70 71 71 72 72 74 74 73 73 71 73 74 74 75 75 75 77 76 75 76 76 73 75 76 74 74 75 72 72 73
75 74 72 70 69 70 70 70 71 72 71 70 70 69 69 68 70 72 74 75 73 73 73 74 73 73 74 74 75 74 75 76 75 75 76 76 75 74 75 74 72 72
74 74 72 71 69 70 71 70 69 70 70 69 69 71 71 72 72 71 72 74 74 73 73 74 74 73 74 75 75 74 74 73 74 76 76 75 76 75 73 74 75 72
74 75 74 72 71 71 70 70 70 69 70 67 69 69 70 71 71 70 70 71 71 70 70 71 72 71 72 74 75 74 73 71 72 74 74 75 73 73 71 73 74 73
72 73 73 71 70 70 71 71 71 71 68 69 70 70 70 70 71 71 71 71 70 71 69 71 73 72 72 73 74 74 74 74 74 74 75 73 74 73 71 73 73 73
72 72 72 72 70 69 71 70 70 70 71 70 68 70 71 68 70 69 70 70 70 70 71 70 72 74 71 71 73 74 74 70 72 74 75 75 74 74 73 72 72 73
71 71 72 71 69 67 67 66 68 70 71 70 68 67 70 70 68 68 70 71 71 71 73 72 73 72 71 71 72 73 73 71 69 71 73 73 72 74 73 73 72 73
71 71 69 69 68 66 66 66 65 67 69 69 68 66 66 70 69 68 69 72 72 72 73 73 72 71 71 71 72 73 73 74 73 73 72 72 72 71 71 72 72 73
69 69 69 69 68 66 65 65 65 64 67 68 67 66 64 66 70 70 71 72 72 71 72 73 72 72 72 70 70 71 72 71 72 73 73 72 71 72 72 72 72 71
69 68 68 68 68 67 65 64 64 64 64 67 67 66 66 64 67 69 70 72 73 72 71 73 73 73 73 72 69 69 70 70 70 71 70 71 71 70 70 71 70 71
67 68 69 68 68 68 67 66 65 64 64 64 67 66 65 64 64 69 70 70 72 72 69 71 72 72 73 74 71 69 69 70 68 68 69 69 69 68 67 67 68 68
67 68 69 70 69 71 70 67 66 66 66 66 68 68 66 65 64 65 68 69 69 70 70 71 72 72 73 74 73 70 69 70 70 68 66 68 68 68 66 64 64 64
70 69 69 70 71 71 71 70 69 69 69 68 69 68 66 66 66 64 66 68 68 68 69 68 67 69 70 71 72 72 70 67 68 69 68 67 67 66 66 67 66 63
71 72 71 71 72 73 73 72 70 70 69 70 69 69 70 70 69 68 66 66 67 68 68 66 65 64 69 67 69 71 71 66 66 69 70 69 69 69 66 65 64 64
71 72 72 72 73 73 74 74 73 71 71 71 71 70 71 72 70 68 67 66 66 67 67 65 64 63 65 64 64 67 70 71 70 70 71 72 70 71 71 68 65 65
71 72 73 73 73 74 74 75 73 72 72 72 71 70 72 70 69 70 70 67 66 66 65 65 65 64 61 62 63 64 67 70 66 68 68 69 71 70 69 69 68 66
71 71 72 73 73 73 74 75 75 74 72 71 70 71 70 72 72 70 70 69 68 68 66 65 65 63 61 61 62 62 63 67 67 66 66 66 68 70 71 70 70 68
73 72 72 72 72 73 74 74 74 74 72 70 70 71 72 71 70 71 71 71 70 69 69 67 67 64 60 59 60 61 62 64 71 69 67 66 67 67 67 69 71 71
72 72 72 72 73 73 73 73 73 73 72 71 69 69 70 71 70 70 71 71 70 69 69 67 65 62 59 58 58 59 60 62 71 71 70 68 68 68 69 69 69 69
67 70 72 73 73 73 73 73 73 74 73 72 71 68 69 69 70 70 70 70 70 69 68 68 67 61 59 57 57 57 59 67 70 71 70 69 69 70 70 71 71 70
66 67 71 71 72 73 73 72 73 72 73 73 72 70 68 68 69 69 71 69 69 70 70 69 68 64 58 56 56 56 59 68 70 69 70 70 70 70 70 71 71 71
67 67 68 70 71 71 72 74 73 71 72 73 72 70 69 68 68 69 70 70 69 69 68 69 69 67 58 55 55 55 61 69 70 69 69 70 71 71 70 71 71 71
64 67 68 68 70 71 70 72 73 73 73 73 72 72 71 71 70 69 68 70 68 68 70 68 68 66 57 55 55 54 61 70 70 69 69 69 69 70 71 70 71 71
63 66 66 67 68 69 71 72 73 72 72 73 73 72 72 74 72 70 69 69 68 68 67 68 68 69 72 55 54 53 55 69 70 69 69 69 69 69 69 70 71 71